Regional Weather Roundup
Issued by NWS

Home | Current Version | Previous Version | Text Only | Print | Product List | Glossary Off
Versions: 1 2 3 4 5 6 7 8 9 10 11 12 13 14 15 16 17 18 19 20 21 22 23 24 25 26 27 28 29 30 31 32 33 34 35 36 37 38 39 40 41 42 43 44 45 46 47 48 49 50

786
ASUS43 KMKX 240000
RWRWI

WISCONSIN REGIONAL WEATHER ROUNDUP
NATIONAL WEATHER SERVICE MILWAUKEE/SULLIVAN WI
700 PM CDT TUE MAY 23 2017

NOTE: "FAIR" INDICATES FEW OR NO CLOUDS BELOW 12,000 FEET WITH NO
SIGNIFICANT WEATHER AND/OR OBSTRUCTIONS TO VISIBILITY.

WIZ001-002-006>008-014>016-023>028-240100-
NORTHWEST WISCONSIN

CITY           SKY/WX    TMP DP  RH WIND       PRES   REMARKS
SUPERIOR ARPT  NOT AVBL
ASHLAND        CLOUDY    47  44  90 NE8       29.89S
6HR MIN TEMP:  46; 6HR MAX TEMP:  55;

HAYWARD        MOSUNNY   52  44  74 NE15      29.85R
6HR MIN TEMP:  52; 6HR MAX TEMP:  61;

SIREN          CLOUDY    56  43  61 NE10G18   29.84R
CUMBERLAND     CLOUDY    55  45  67 N14G20    29.81S
RICE LAKE      CLOUDY    57  45  64 N12       29.81S
CHETEK         LGT RAIN  55  48  77 NE5       29.79S
LADYSMITH      CLOUDY    55  46  70 N14       29.81S
EAU CLAIRE     NOT AVBL
MENOMONIE      CLOUDY    57  48  71 N7        29.78S
NEW RICHMOND   CLOUDY    58  46  64 E6        29.80S
OSCEOLA        CLOUDY    59  44  59 N10G17    29.83S
$$

WIZ003>005-009-010-017-018-240100-
NORTH CENTRAL WISCONSIN

CITY           SKY/WX    TMP DP  RH WIND       PRES   REMARKS
MANITOWISH WTR CLOUDY    52  45  76 NE8       29.82S
ARBOR VITAE    CLOUDY    55  46  72 N7        29.80S
WOODRUFF       CLOUDY    55  46  72 N7        29.80S
RHINELANDER    CLOUDY    57  45  64 NE7       29.79S
6HR MIN TEMP:  55; 6HR MAX TEMP:  60;

EAGLE RIVER    CLOUDY    53  42  65 N13       29.80S
LAND O LAKES   CLOUDY    53  44  72 N8        29.83S
PHILLIPS       CLOUDY    52  46  78 N8        29.80S
TOMAHAWK       CLOUDY    55  46  70 N6        29.79S
MEDFORD        CLOUDY    55  46  72 NE10      29.76S
MERRILL        CLOUDY    57  45  65 NE5       29.77F
$$

WIZ029-030-035-036-043>047-240100-
CENTRAL WISCONSIN

CITY           SKY/WX    TMP DP  RH WIND       PRES   REMARKS
WAUSAU         PTSUNNY   56  43  61 NE10      29.75S
6HR MIN TEMP:  55; 6HR MAX TEMP:  58;

MOSINEE        PTSUNNY   54  46  76 E8        29.77S
MARSHFIELD     CLOUDY    56  44  64 E9        29.74S
6HR MIN TEMP:  53; 6HR MAX TEMP:  59; 6HR PCP: TRACE;

STEVENS POINT  LGT RAIN  52  44  75 NE9G17    29.76S
WAUPACA        DRIZZLE   54  46  76 NE7       29.77R
WAUTOMA        RAIN      51  49  92 E13       29.75R
6HR MIN TEMP:  51; 6HR MAX TEMP:  60; 6HR PCP:  0.11;

WISC RAPIDS    CLOUDY    54  46  74 E9        29.76R
6HR MIN TEMP:  54; 6HR MAX TEMP:  61; 6HR PCP: TRACE;

CAMP DOUGLAS   NOT AVBL
$$

WIZ011>013-019>022-031-037>040-048>050-240100-
NORTHEAST WISCONSIN

CITY           SKY/WX    TMP DP  RH WIND       PRES   REMARKS
ANTIGO         CLOUDY    54  43  67 E8        29.78S
SHAWANO        LGT RAIN  54  47  76 NE7       29.78S
OCONTO         CLOUDY    49  47  93 N3        29.78F
STURGEON BAY   CLOUDY    51  47  86 NW7       29.78S
6HR MIN TEMP:  51; 6HR MAX TEMP:  54;

GREEN BAY      LGT RAIN  51  50  96 NE8       29.78R
6HR MIN TEMP:  51; 6HR MAX TEMP:  55; 6HR PCP:  0.23;

MANITOWOC      LGT RAIN  48  46  93 N6        29.77S
APPLETON       LGT RAIN  50  48  93 NE12      29.75R
CLINTONVILLE   LGT RAIN  50  46  87 NE5       29.77S
OSHKOSH        RAIN      51  48  89 NE10      29.75R FOG
6HR MIN TEMP:  51; 6HR MAX TEMP:  58; 6HR PCP:  0.09;

$$

WIZ032>034-041-042-053>061-240100-
SOUTHWEST WISCONSIN

CITY           SKY/WX    TMP DP  RH WIND       PRES   REMARKS
LA CROSSE      LGT RAIN  56  52  86 N7        29.73S FOG
6HR MIN TEMP:  56; 6HR MAX TEMP:  61; 6HR PCP:  0.08;

SPARTA         LGT RAIN  52  51  97 NE5       29.74R
VIROQUA        CLOUDY    55  53  94 MISG      29.71S
BOSCOBEL       CLOUDY    61  50  67 N3        29.70S
6HR MIN TEMP:  61; 6HR MAX TEMP:  65;

PRAIRIE DU CHI CLOUDY    60  50  69 NW8       29.70S
PLATTEVILLE    CLOUDY    61  51  69 CALM      29.69F
$$

WIZ056-057-062-063-064-067-068-240100-
SOUTH CENTRAL WISCONSIN

CITY           SKY/WX    TMP DP  RH WIND       PRES   REMARKS
REEDSBURG      CLOUDY    54  52  94 NW8       29.72R
BARABOO/DELLS  DRIZZLE   54  52  90 E9        29.71S
LONE ROCK      NOT AVBL
MINERAL POINT  MOSUNNY   61  52  72 W5        29.69F
MADISON        LGT RAIN  57  55  93 S6        29.68F
6HR MIN TEMP:  56; 6HR MAX TEMP:  64; 6HR PCP:  0.08;

MIDDLETON      CLOUDY    59  54  82 SW3       29.69F
WATERTOWN      LGT RAIN  54  54 100 NE5       29.71R
MONROE         MOSUNNY   55  54  94 E3        29.69S
JANESVILLE     CLOUDY    55  55 100 CALM      29.69F
$$

WIZ051-052-058>065-066-070>072-240100-
SOUTHEAST WISCONSIN

CITY           SKY/WX    TMP DP  RH WIND       PRES   REMARKS
MILWAUKEE      HVY RAIN  57  55  93 S8        29.71F FOG
6HR MIN TEMP:  57; 6HR MAX TEMP:  66; 6HR PCP:  0.06;

WAUKESHA       LGT RAIN  54  54 100 CALM      29.73S
MILWAUKEE/TIMM RAIN      52  48  87 N12       29.73S
RACINE         LGT RAIN  55  51  86 S7        29.73S
6HR MIN TEMP:  55; 6HR MAX TEMP:  65; 6HR PCP:  0.01;

KENOSHA        LGT RAIN  57  53  86 SE7       29.72S
6HR MIN TEMP:  57; 6HR MAX TEMP:  64; 6HR PCP:  0.02;

FOND DU LAC    HVY RAIN  51  48  89 NE8       29.75R FOG
6HR MIN TEMP:  51; 6HR MAX TEMP:  61; 6HR PCP:  0.61;

SHEBOYGAN      CLOUDY    47  47 100 NE10      29.75R FOG
6HR MIN TEMP:  47; 6HR MAX TEMP:  51; 6HR PCP:  0.71;

WEST BEND      DRIZZLE   50  50 100 NE7       29.74R
JUNEAU         LGT RAIN  53  52  97 N3        29.73F
$$

LSZ147-162-240100-
LAKE SUPERIOR

STATION/POSITION TIME  TEMP    WIND        PRES    WAVE
                       AIR SEA DIR/SP/G            HT/PER
                 (UTC) (F)     (DEG/KT/KT) (MB)    (FT/S)
W MID LAKE BUOY  2250   41 37   70/  4/  6 1012.7R   0
DEVILS ISLAND    2300   42     360/  6/  6 1013.1R
PORT WING        2330   42      20/ 12/ 14 1012.5R
SAXON HARBOR     2330   42      10/  2/  3 1011.9S
$$

LMZ867-665-643>646-240100-
LAKE MICHIGAN

STATION/POSITION TIME  TEMP    WIND        PRES    WAVE
                       AIR SEA DIR/SP/G            HT/PER
                 (UTC) (F)     (DEG/KT/KT) (MB)    (FT/S)
CHAMBERS ISLAND  2340   49     350/  2/  2 1008.1S
N MID LAKE BUOY  2250   42 39  340/  6/  8 1009.0F   0
NORTHPORT PIER   2340   51     320/  3/  4 1008.1S
KEWAUNEE LAKESHO 2330   50      20/  5/ 12 1007.7S
SHEBOYGAN LAKESH 2300   45      10/ 13/ 14 1007.6S
PORT WASHINGTON  2340   48      30/  6/  9 1008.1S
ATWATER BUOY     2209   51     160/ 12/ 16 1006.5F
MILWAUKEE LAKESH 2330   51     130/  9/  9   N/A
S MID LAKE BUOY  2250   49 45  150/  2/  2 1006.9F   0
KENOSHA   LAKESH 2300   53     170/ 12/ 13 1006.1
$$

TC  - TEMPERATURE IN CELSIUS
VSB - VISIBILITY IN STATUTE MILES
WCI - WIND CHILL INDEX
HX  - HEAT INDEX





USA.gov is the U.S. government's official web portal to all federal, state and local government web resources and services.